This is the latest recevied weather packets stored in our database for station/object KF4UQS-14. If no packets are shown the sender has not sent any weather packets the latest 10 day(s).
| Time | Temp. | Humidity | Pressure | Rain* | Wind** | Luminosity | Snow |
|---|---|---|---|---|---|---|---|
| 1777897265 | 14.44° C | 77% | 1017.9 hPa | 0 mm | - | 98 W/m² | - |
| 1777896961 | 14.44° C | 77% | 1017.8 hPa | 0 mm | - | 99 W/m² | - |
| 1777896658 | 14.44° C | 78% | 1017.9 hPa | 0 mm | - | 106 W/m² | - |
| 1777896355 | 14.44° C | 78% | 1017.9 hPa | 0 mm | - | 96 W/m² | - |
| 1777896053 | 13.89° C | 80% | 1018 hPa | 0 mm | - | 103 W/m² | - |
| 1777895751 | 13.33° C | 82% | 1017.9 hPa | 0 mm | - | 90 W/m² | - |
| 1777895448 | 12.78° C | 83% | 1017.9 hPa | 0 mm | - | 68 W/m² | - |
| 1777895146 | 12.78° C | 85% | 1018 hPa | 0 mm | - | 65 W/m² | - |
| 1777894843 | 12.22° C | 86% | 1017.8 hPa | 0 mm | - | 66 W/m² | - |
| 1777894539 | 12.22° C | 86% | 1017.9 hPa | 0 mm | - | 64 W/m² | - |
| 1777894237 | 12.22° C | 87% | 1017.9 hPa | 0 mm | - | 66 W/m² | - |
| 1777893933 | 11.67° C | 87% | 1017.9 hPa | 0 mm | - | 69 W/m² | - |
| 1777893630 | 11.67° C | 88% | 1018 hPa | 0 mm | - | 56 W/m² | - |
| 1777893326 | 11.11° C | 90% | 1018.1 hPa | 0 mm | - | 48 W/m² | - |
| 1777893022 | 11.11° C | 92% | 1018 hPa | 0 mm | - | 51 W/m² | - |
| 1777892720 | 10.56° C | 95% | 1018 hPa | 0 mm | - | 39 W/m² | - |
| 1777892416 | 10° C | 96% | 1018 hPa | 0 mm | - | 31 W/m² | - |
| 1777892111 | 9.44° C | 96% | 1018 hPa | 0 mm | - | 28 W/m² | - |
| 1777891809 | 9.44° C | 96% | 1018.1 hPa | 0 mm | - | 28 W/m² | - |
| 1777891506 | 8.89° C | 96% | 1017.9 hPa | 0 mm | - | 20 W/m² | - |
| 1777891202 | 8.89° C | 96% | 1017.9 hPa | 0 mm | - | 16 W/m² | - |
| 1777890896 | 8.89° C | 96% | 1018.1 hPa | 0 mm | - | 16 W/m² | - |
| 1777890592 | 8.89° C | 96% | 1017.7 hPa | 0 mm | - | 13 W/m² | - |
| 1777890287 | 8.89° C | 96% | 1017.9 hPa | 0 mm | - | 8 W/m² | - |
| 1777889984 | 8.89° C | 95% | 1018 hPa | 0 mm | - | 6 W/m² | - |
* Rain latest hour (hover to see other rain measurements)
** Current wind speed in m/s (hover to see current wind gust speed)